This demonstration page uses our WeatherBlox Daily Observations layout. Learn more.

Left ArrowRight Arrow

Hourly Observations for January 11, 2016

Temp ( °F °C ) Dew Point ( °F °C ) Humidity (%) Winds ( mph kmh ) Pressure ( in mb ) Visibility ( mi km ) Precip ( " mm )
12:59 am 00:59 Clear 43 6.1 26 -3.3 51 51 WNW 20 31 29.88 1012 10 16 0.00 0.00
1:59 am 01:59 Clear 41 5 24 -4.4 51 51 WNW 20 31 29.91 1013 10 16 0.00 0.00
2:59 am 02:59 Clear 39 3.9 21 -6.1 48 48 WNW 21 33 29.95 1014 10 16 0.00 0.00
3:59 am 03:59 Clear 38 3.3 22 -5.6 52 52 WNW 16 26 29.98 1015 10 16 0.00 0.00
4:59 am 04:59 Clear 37 2.8 21 -6.1 52 52 WNW 17 28 30.00 1016 10 16 0.00 0.00
5:59 am 05:59 Clear 36 2.2 21 -6.1 55 55 NW 12 19 30.03 1017 10 16 0.00 0.00
6:59 am 06:59 Clear 36 2.2 20 -6.7 52 52 NW 16 26 30.07 1018 10 16 0.00 0.00
7:59 am 07:59 Sunny 36 2.2 21 -6.1 55 55 WNW 14 22 30.09 1019 7 11 0.00 0.00
8:59 am 08:59 Sunny 38 3.3 19 -7.2 46 46 WNW 15 24 30.13 1020 7 11 0.00 0.00
9:59 am 09:59 Sunny 39 3.9 18 -7.8 43 43 WNW 13 20 30.15 1021 7 11 0.00 0.00
10:59 am 10:59 Sunny 39 3.9 16 -8.9 39 39 W 13 20 30.14 1021 7 11 0.00 0.00
11:59 am 11:59 Sunny 41 5 16 -8.9 36 36 W 10 17 30.12 1020 7 11 0.00 0.00
12:59 pm 12:59 Sunny 42 5.6 11 -11.7 28 28 W 12 19 30.09 1019 7 11 0.00 0.00
1:59 pm 13:59 Partly Cloudy 44 6.7 11 -11.7 26 26 W 10 17 30.09 1019 7 11 0.00 0.00
2:59 pm 14:59 Partly Cloudy 43 6.1 10 -12.2 26 26 WNW 12 19 30.10 1019 7 11 0.00 0.00
3:59 pm 15:59 Mostly Cloudy 43 6.1 10 -12.2 26 26 W 12 19 30.10 1019 7 11 0.00 0.00
4:59 pm 16:59 Partly Cloudy 42 5.6 12 -11.1 29 29 W 8 13 30.11 1020 7 11 0.00 0.00
5:59 pm 17:59 Partly Cloudy 40 4.4 12 -11.1 32 32 WSW 7 11 30.14 1021 7 11 0.00 0.00
6:59 pm 18:59 Mostly Cloudy 41 5 12 -11.1 30 30 WSW 7 11 30.15 1021 10 16 0.00 0.00
7:59 pm 19:59 Clear 39 3.9 16 -8.9 39 39 WSW 7 11 30.17 1022 10 16 0.00 0.00
8:59 pm 20:59 Clear 37 2.8 15 -9.4 41 41 WSW 7 11 30.16 1022 10 16 0.00 0.00
9:59 pm 21:59 Clear 36 2.2 14 -10 40 40 WSW 6 9 30.16 1022 10 16 0.00 0.00
10:59 pm 22:59 Clear 35 1.7 15 -9.4 44 44 SW 6 9 30.17 1022 10 16 0.00 0.00
11:59 pm 23:59 Clear 32 0 18 -7.8 56 56 SSW 3 6 30.15 1021 10 16 0.00 0.00

Powered by AerisWeather